Boulder City, NV

2:14 PM PDT on July 25, 2016 (GMT -0700)
Boulder City

Weather History for KBVU - October, 2011

Change the Weather History Date:

Monday, October 17, 2011

  Actual Average (KLAS) Record (KLAS)
Temperature  
Mean Temperature 75 °F 69 °F  
Max Temperature 84 °F 80 °F 94 °F (1991)
Min Temperature 66 °F 58 °F 38 °F (1938)
Degree Days  
Heating Degree Days 0 1  
Month to date heating degree days 7  
Since 1 July heating degree days 8  
Cooling Degree Days 10 5  
Month to date cooling degree days 134  
Year to date cooling degree days 3511  
Growing Degree Days 25 (Base 50)    
Moisture  
Dew Point 37 °F    
Average Humidity 24    
Maximum Humidity 40    
Minimum Humidity 16    
Precipitation  
Precipitation 0.00 in 0.01 in 0.48 in (2005)
Month to date precipitation 0.12  
Year to date precipitation 3.18  
Snow  
Snow 0.00 in 0.00 in 0.00 in ()
Month to date snowfall 0.0  
Since 1 July snowfall 0.0  
Since 1 September snowfall 0.0  
Snow Depth -    
Sea Level Pressure  
Sea Level Pressure 30.08 in    
Wind  
Wind Speed 9 mph (NNE)    
Max Wind Speed 25 mph    
Max Gust Speed 32 mph    
Visibility 10 miles    
Events      
T = Trace of Precipitation, MM = Missing Value Source: NWS Daily Summary

Daily Weather History Graph

Daily Weather History Graph

Search for Another Location

Airport or City:

Trip Planner

Search our weather history database for the weather conditions in past years. The results will help you decide how hot, cold, wet, or windy it might be!

Date:

Astronomy

Oct. 17, 2011 Rise Set
Actual Time 6:47 AM PDT 6:01 PM PDT
Civil Twilight 6:21 AM PDT 6:27 PM PDT
Nautical Twilight 5:52 AM PDT 6:56 PM PDT
Astronomical Twilight 5:22 AM PDT 7:26 PM PDT
Moon 9:53 PM PDT (10/17) 11:49 AM PDT (10/17)
Length of Visible Light 12h 05m
Length of Day
11h 13m
Waning Gibbous, 73% of the Moon is Illuminated
Oct 17
Waning Gibbous
Oct 19
Last Quarter
Oct 26
New
Nov 2
First Quarter
Nov 10
Full

Hourly Weather History & Observations

Time (PDT) Temp. Dew Point Humidity Pressure Visibility Wind Dir Wind Speed Gust Speed Precip Events Conditions
1:15 AM 71.6 °F 39.2 °F 31% 29.99 in 10.0 mi NE 6.9 mph - N/A   Clear
1:35 AM 68.0 °F 41.0 °F 37% 29.99 in 10.0 mi ENE 3.5 mph - N/A   Clear
1:55 AM 68.0 °F 41.0 °F 37% 29.99 in 10.0 mi NE 6.9 mph - N/A   Clear
2:15 AM 68.0 °F 39.2 °F 35% 30.00 in 10.0 mi North 5.8 mph - N/A   Clear
2:35 AM 68.0 °F 41.0 °F 37% 30.00 in 10.0 mi NE 6.9 mph - N/A   Clear
3:15 AM 66.2 °F 41.0 °F 40% 30.00 in 10.0 mi Calm Calm - N/A   Clear
3:35 AM 68.0 °F 41.0 °F 37% 30.00 in 10.0 mi ESE 3.5 mph - N/A   Clear
3:55 AM 69.8 °F 37.4 °F 31% 30.01 in 10.0 mi Calm Calm - N/A   Clear
4:15 AM 73.4 °F 37.4 °F 27% 30.02 in 10.0 mi East 5.8 mph - N/A   Clear
4:35 AM 73.4 °F 35.6 °F 25% 30.03 in 10.0 mi NNE 5.8 mph - N/A   Clear
4:55 AM 73.4 °F 35.6 °F 25% 30.03 in 10.0 mi Calm Calm - N/A   Clear
5:15 AM 69.8 °F 37.4 °F 31% 30.04 in 10.0 mi Calm Calm - N/A   Clear
5:35 AM 73.4 °F 33.8 °F 23% 30.04 in 10.0 mi Calm Calm - N/A   Clear
5:55 AM 73.4 °F 35.6 °F 25% 30.04 in 10.0 mi Calm Calm - N/A   Clear
6:15 AM 68.0 °F 37.4 °F 33% 30.04 in 10.0 mi Calm Calm - N/A   Clear
6:35 AM 66.2 °F 37.4 °F 35% 30.05 in 10.0 mi Calm Calm - N/A   Clear
6:55 AM 68.0 °F 37.4 °F 33% 30.06 in 10.0 mi Calm Calm - N/A   Clear
7:15 AM 71.6 °F 37.4 °F 29% 30.07 in 10.0 mi Calm Calm - N/A   Clear
7:35 AM 75.2 °F 35.6 °F 24% 30.07 in 10.0 mi North 21.9 mph 26.5 mph N/A   Clear
7:55 AM 77.0 °F 35.6 °F 22% 30.08 in 10.0 mi North 19.6 mph 28.8 mph N/A   Clear
8:15 AM 77.0 °F 35.6 °F 22% 30.09 in 10.0 mi North 21.9 mph 29.9 mph N/A   Clear
8:35 AM 77.0 °F 35.6 °F 22% 30.10 in 10.0 mi NNW 18.4 mph 24.2 mph N/A   Clear
8:55 AM 78.8 °F 35.6 °F 21% 30.12 in 10.0 mi North 16.1 mph 20.7 mph N/A   Clear
9:15 AM 80.6 °F 35.6 °F 20% 30.12 in 10.0 mi North 23.0 mph - N/A   Clear
9:35 AM 80.6 °F 37.4 °F 21% 30.13 in 10.0 mi North 23.0 mph - N/A   Clear
9:55 AM 80.6 °F 37.4 °F 21% 30.13 in 10.0 mi North 18.4 mph 27.6 mph N/A   Clear
10:15 AM 80.6 °F 37.4 °F 21% 30.13 in 10.0 mi North 18.4 mph 24.2 mph N/A   Clear
10:35 AM 80.6 °F 37.4 °F 21% 30.13 in 10.0 mi North 19.6 mph - N/A   Clear
10:55 AM 82.4 °F 37.4 °F 20% 30.13 in 10.0 mi North 23.0 mph - N/A   Clear
11:15 AM 82.4 °F 37.4 °F 20% 30.12 in 10.0 mi North 24.2 mph 32.2 mph N/A   Clear
11:35 AM 82.4 °F 39.2 °F 21% 30.12 in 10.0 mi North 23.0 mph 27.6 mph N/A   Clear
11:55 AM 82.4 °F 39.2 °F 21% 30.12 in 10.0 mi NNE 23.0 mph 28.8 mph N/A   Clear
12:15 PM 82.4 °F 39.2 °F 21% 30.12 in 10.0 mi NNE 25.3 mph - N/A   Clear
12:35 PM 82.4 °F 37.4 °F 20% 30.12 in 10.0 mi NNE 17.3 mph 27.6 mph N/A   Clear
12:55 PM 82.4 °F 39.2 °F 21% 30.12 in 10.0 mi NNE 17.3 mph 23.0 mph N/A   Clear
1:15 PM 82.4 °F 37.4 °F 20% 30.11 in 10.0 mi NNE 16.1 mph 24.2 mph N/A   Clear
1:35 PM 82.4 °F 37.4 °F 20% 30.11 in 10.0 mi NNE 13.8 mph 21.9 mph N/A   Clear
1:55 PM 82.4 °F 37.4 °F 20% 30.10 in 10.0 mi NNE 12.7 mph - N/A   Clear
2:15 PM 84.2 °F 37.4 °F 19% 30.10 in 10.0 mi NE 6.9 mph 19.6 mph N/A   Clear
2:35 PM 82.4 °F 35.6 °F 19% 30.10 in 10.0 mi NE 9.2 mph 18.4 mph N/A   Clear
2:55 PM 82.4 °F 35.6 °F 19% 30.10 in 10.0 mi NNE 9.2 mph - N/A   Clear
3:15 PM 82.4 °F 35.6 °F 19% 30.10 in 10.0 mi NE 12.7 mph - N/A   Clear
3:35 PM 82.4 °F 32.0 °F 16% 30.10 in 10.0 mi NE 12.7 mph 18.4 mph N/A   Clear
3:55 PM 82.4 °F 32.0 °F 16% 30.09 in 10.0 mi ENE 9.2 mph - N/A   Clear
4:15 PM 82.4 °F 33.8 °F 17% 30.09 in 10.0 mi NE 10.4 mph - N/A   Clear
4:35 PM 82.4 °F 32.0 °F 16% 30.09 in 10.0 mi NE 12.7 mph - N/A   Clear
5:15 PM 80.6 °F 32.0 °F 17% 30.09 in 10.0 mi NE 9.2 mph - N/A   Clear
5:35 PM 80.6 °F 32.0 °F 17% 30.09 in 10.0 mi NNE 8.1 mph - N/A   Clear
5:55 PM 78.8 °F 32.0 °F 18% 30.09 in 10.0 mi NNE 6.9 mph - N/A   Clear
6:15 PM 77.0 °F 35.6 °F 22% 30.09 in 8.0 mi NNE 8.1 mph - N/A   Clear
6:35 PM 75.2 °F 37.4 °F 25% 30.09 in 10.0 mi NNE 6.9 mph - N/A   Clear
6:55 PM 75.2 °F 39.2 °F 27% 30.09 in 9.0 mi NNE 8.1 mph - N/A   Clear
7:15 PM 75.2 °F 35.6 °F 24% 30.10 in 10.0 mi NE 9.2 mph - N/A   Clear
7:35 PM 75.2 °F 35.6 °F 24% 30.10 in 10.0 mi NE 8.1 mph - N/A   Clear
7:55 PM 73.4 °F 35.6 °F 25% 30.10 in 10.0 mi NE 11.5 mph - N/A   Clear
8:15 PM 73.4 °F 35.6 °F 25% 30.10 in 10.0 mi NE 12.7 mph - N/A   Clear
8:35 PM 73.4 °F 33.8 °F 23% 30.10 in 10.0 mi NNE 10.4 mph - N/A   Clear
8:55 PM 71.6 °F 35.6 °F 27% 30.10 in 10.0 mi NNE 9.2 mph - N/A   Clear
9:15 PM 69.8 °F 35.6 °F 28% 30.11 in 8.0 mi North 6.9 mph - N/A   Clear
9:35 PM 68.0 °F 32.0 °F 26% 30.12 in 8.0 mi NNE 8.1 mph - N/A   Clear
9:55 PM 68.0 °F 32.0 °F 26% 30.12 in 7.0 mi NNE 8.1 mph - N/A   Clear
10:15 PM 66.2 °F 32.0 °F 28% 30.12 in 7.0 mi North 8.1 mph - N/A   Clear
10:35 PM 66.2 °F 32.0 °F 28% 30.12 in 7.0 mi NNE 5.8 mph - N/A   Clear
10:55 PM 64.4 °F 32.0 °F 30% 30.12 in 7.0 mi North 4.6 mph - N/A   Clear
11:15 PM 64.4 °F 32.0 °F 30% 30.12 in 8.0 mi Calm Calm - N/A   Clear
11:35 PM 66.2 °F 32.0 °F 28% 30.12 in 8.0 mi Calm Calm - N/A   Clear
11:55 PM 62.6 °F 33.8 °F 34% 30.12 in 7.0 mi Calm Calm - N/A   Clear